Вернуться в каталог

STARLINK-30866

АктивенСвязьVLEO
NORAD 58237·PAYLOAD·🇺🇸 United States

Запущен Nov 8, 2023 с Cape Canaveral Space Force Station

Loading…

Ближайшие Пролёты (ближайшие 24 часа)

TLE

СвежийSource: CelesTrak SupGP

Эпоха: Sep 14, 2026, 22:09 UTC

1 58237C 23171H   26257.92340278  .00007918  00000+0  28676-3 0  2579
2 58237  43.0026 296.4619 0001890 273.6523 180.9930 15.27575802    18

Отслеживайте STARLINK-30866 в реальном времени с AllMySat

Download on the App Store